This demonstration page uses our WeatherBlox Daily Observations layout. Learn more.

Left ArrowRight Arrow

41.86663, -103.66717

Hourly Observations for November 26, 2019

Temp ( °F °C ) Dew Point ( °F °C ) Humidity (%) Winds ( mph kmh ) Pressure ( in mb ) Visibility ( mi km ) Precip ( " mm )
12:22 am 00:22 Cloudy with Light Snow 29 -1.7 27 -2.8 92 92 ENE 13 20 29.81 1009 2 2 0.00 0.00
12:53 am 00:53 Cloudy with Light Snow 29 -1.7 27 -2.8 92 92 ENE 9 15 29.70 1006 1 2 0.02 0.51
1:14 am 01:14 Cloudy with Light Snow 29 -1.7 26 -3.3 89 89 E 14 22 29.80 1009 3 4 0.00 0.00
1:24 am 01:24 Cloudy with Light Snow 29 -1.7 26 -3.3 89 89 ENE 12 19 29.80 1009 4 6 0.00 0.00
1:53 am 01:53 Cloudy with Light Snow 29 -1.7 26 -3.3 89 89 ENE 10 17 29.71 1006 2 3 0.00 0.00
1:59 am 01:59 Cloudy with Light Snow 29 -1.7 26 -3.3 89 89 E 13 20 29.81 1009 2 3 0.00 0.00
2:06 am 02:06 Cloudy with Light Snow 29 -1.7 26 -3.3 89 89 ENE 10 17 29.81 1009 2 3 0.00 0.00
2:17 am 02:17 Cloudy with Light Snow 29 -1.7 26 -3.3 89 89 E 9 15 29.81 1009 2 2 0.01 0.25
2:53 am 02:53 Mostly Cloudy with Light Snow 28 -2.2 26 -3.3 92 92 ENE 9 15 29.72 1006 1 1 0.03 0.76
3:11 am 03:11 Mostly Cloudy with Light Snow 28 -2 27 -3 93 93 E 10 17 29.81 1010 1 2 0.00 0.00
3:53 am 03:53 Cloudy with Light Snow 28 -2.2 26 -3.3 92 92 ENE 13 20 29.73 1007 2 2 0.03 0.76
4:02 am 04:02 Cloudy with Light Snow 28 -2.2 25 -3.9 88 88 ENE 12 19 29.83 1010 2 2 0.01 0.25
4:53 am 04:53 Cloudy with Light Snow 27 -2.8 25 -3.9 92 92 ENE 12 19 29.75 1007 2 2 0.03 0.76
5:53 am 05:53 Cloudy with Light Snow 27 -2.8 26 -3.3 96 96 NE 6 9 29.76 1008 2 3 0.02 0.51
6:01 am 06:01 Cloudy with Light Snow 27 -2.8 25 -3.9 92 92 NE 9 15 29.85 1011 2 3 0.00 0.00
6:40 am 06:40 Cloudy with Light Snow 27 -3 25 -4 93 93 ENE 8 13 29.85 1011 3 5 0.00 0.00
6:53 am 06:53 Cloudy with Light Snow 27 -2.8 25 -3.9 92 92 ENE 8 13 29.77 1008 3 5 0.00 0.00
7:24 am 07:24 Cloudy with Light Snow 27 -2.8 25 -3.9 92 92 NE 9 15 29.86 1011 3 4 0.00 0.00
7:53 am 07:53 Cloudy with Light Snow 27 -2.8 24 -4.4 89 89 NNE 9 15 29.78 1008 3 4 0.00 0.00
8:01 am 08:01 Cloudy with Light Snow 27 -2.8 24 -4.4 89 89 NNE 8 13 29.87 1011 3 5 0.00 0.00
8:11 am 08:11 Cloudy with Light Snow 27 -2.8 25 -3.9 92 92 N 6 9 29.87 1011 2 3 0.00 0.00
8:27 am 08:27 Cloudy with Light Snow 27 -2.8 25 -3.9 92 92 N 8 13 29.87 1011 2 3 0.00 0.00
8:41 am 08:41 Cloudy with Light Snow 28 -2.2 25 -3.9 88 88 N 9 15 29.87 1011 2 3 0.01 0.25
8:53 am 08:53 Cloudy with Light Snow 28 -2.2 25 -3.9 88 88 N 8 13 29.79 1009 2 3 0.01 0.25
9:00 am 09:00 Cloudy with Light Snow 28 -2 25 -4 86 86 NNE 8 13 29.86 1011 2 3 0.00 0.00
9:10 am 09:10 Cloudy with Light Snow 28 -2 25 -4 86 86 NNE 9 15 29.86 1011 2 3 0.00 0.00
9:33 am 09:33 Cloudy with Light Snow 28 -2.2 24 -4.4 85 85 N 10 17 29.87 1011 3 4 0.00 0.00
9:46 am 09:46 Cloudy with Light Snow 28 -2.2 24 -4.4 85 85 N 12 19 29.88 1012 3 5 0.00 0.00
9:53 am 09:53 Cloudy with Light Snow 28 -2.2 24 -4.4 85 85 N 10 17 29.80 1009 4 6 0.00 0.00
10:21 am 10:21 Cloudy with Light Snow 28 -2.2 24 -4.4 85 85 N 12 19 29.88 1012 3 5 0.00 0.00
10:38 am 10:38 Cloudy with Light Snow 28 -2 25 -4 86 86 N 12 19 29.87 1012 3 4 0.00 0.00
10:45 am 10:45 Cloudy with Light Snow 29 -1.7 24 -4.4 82 82 N 10 17 29.87 1011 3 5 0.00 0.00
10:53 am 10:53 Cloudy with Light Snow 29 -1.7 24 -4.4 82 82 N 10 17 29.80 1009 4 6 0.00 0.00
11:03 am 11:03 Cloudy with Light Snow 29 -1.7 24 -4.4 82 82 N 14 22 29.86 1011 4 6 0.00 0.00
11:20 am 11:20 Cloudy with Light Snow 29 -1.7 24 -4.4 82 82 N 13 20 29.86 1011 3 5 0.00 0.00
11:50 am 11:50 Cloudy with Light Snow 28 -2 25 -4 86 86 N 13 20 29.85 1011 3 4 0.00 0.00
11:53 am 11:53 Cloudy with Light Snow 29 -1.7 25 -3.9 85 85 N 13 20 29.78 1008 3 4 0.00 0.00
12:01 pm 12:01 Cloudy with Light Snow 29 -1.7 24 -4.4 82 82 N 14 22 29.85 1011 3 5 0.00 0.00
12:24 pm 12:24 Cloudy with Light Wintry Mix 28 -2 25 -4 86 86 N 14 22 29.85 1011 5 8 0.00 0.00
12:53 pm 12:53 Cloudy with Light Snow 29 -1.7 24 -4.4 82 82 N 14 22 29.78 1009 7 11 0.00 0.00
1:16 pm 13:16 Cloudy 28 -2 23 -5 80 80 N 14 22 29.85 1011 10 16 0.00 0.00
1:53 pm 13:53 Cloudy 29 -1.7 23 -5 78 78 N 13 20 29.80 1009 10 16 0.00 0.00
2:53 pm 14:53 Cloudy 28 -2.2 22 -5.6 78 78 N 15 24 29.83 1010 10 16 0.00 0.00
3:53 pm 15:53 Cloudy 27 -2.8 21 -6.1 78 78 N 12 19 29.86 1011 10 16 0.00 0.00
4:53 pm 16:53 Cloudy 25 -3.9 20 -6.7 81 81 NNW 9 15 29.91 1013 10 16 0.00 0.00
5:53 pm 17:53 Cloudy 23 -5 18 -7.8 81 81 NNW 8 13 29.96 1014 10 16 0.00 0.00
6:53 pm 18:53 Cloudy 24 -4.4 19 -7.2 81 81 NW 9 15 29.97 1015 10 16 0.00 0.00
7:53 pm 19:53 Cloudy with Light Snow 24 -4.4 20 -6.7 84 84 NW 8 13 30.01 1016 9 14 0.00 0.00
8:53 pm 20:53 Cloudy 24 -4.4 19 -7.2 81 81 WNW 6 9 30.03 1017 10 16 0.00 0.00
9:53 pm 21:53 Cloudy 23 -5 19 -7.2 85 85 WNW 6 9 30.05 1018 10 16 0.00 0.00
10:53 pm 22:53 Cloudy 20 -6.7 18 -7.8 92 92 W 5 7 30.06 1018 10 16 0.00 0.00
11:53 pm 23:53 Cloudy 20 -6.7 18 -7.8 92 92 W 3 6 30.08 1019 10 16 0.00 0.00

Powered by AerisWeather